Regional Weather Roundup
Issued by NWS

Home | Current Version | Previous Version | Graphics & Text | Print | Product List | Glossary On
Versions: 1 2 3 4 5 6 7 8 9 10 11 12 13 14 15 16 17 18 19 20 21 22 23 24 25 26 27 28 29 30 31 32 33 34 35 36 37 38 39 40 41 42 43 44 45 46 47 48 49 50
000
ASUS45 KTFX 242119
RWRMT
MONTANA HOURLY WEATHER ROUNDUP
NATIONAL WEATHER SERVICE GREAT FALLS MT
319 PM MDT FRI OCT 24 2014

NOTE: "FAIR" INDICATES FEW OR NO CLOUDS BELOW 12000 FEET WITH NO
SIGNIFICANT WEATHER AND/OR OBSTRUCTIONS TO VISIBILITY.

* THESE STATIONS ARE NOT UNDER NWS QUALITY CONTROL. THEY DO NOT
   REPORT WEATHER SUCH AS PRECIPITATION OR FOG.

MTZ001>007-043-242200-
WEST OF THE DIVIDE
CITY           SKY/WX    TMP DP  RH WIND       PRES   REMARKS
KALISPELL      CLOUDY    52  36  55 S8        30.09S
MISSOULA       CLOUDY    52  43  72 S8        30.11F
BUTTE          CLOUDY    46  37  71 CALM      30.13F
MULLAN PASS    CLOUDY    37  34  89 CALM      30.09S
* ESSEX        N/A       48  35  61 S1         N/A
* LINCOLN      N/A       50  36  59 SW5G11     N/A
* LOOKOUT PASS N/A       45  36  71 E2         N/A
* POLSON       N/A       54  37  53 SE3G9      N/A
* RONAN APT    CLOUDY    54  37  53 N/A        N/A
* SEELEY LAKE  N/A       51  34  52 N2         N/A
* THOMP F APT  CLOUDY    56  36  47 S7G18      N/A
$$

MTZ008-052>055-242200-
SOUTHWEST MONTANA
CITY           SKY/WX    TMP DP  RH WIND       PRES   REMARKS
BOZEMAN        CLOUDY    50  39  66 W6        30.12R
DILLON         CLOUDY    52  43  72 NE5       30.10F
W YELLOWSTONE  CLOUDY    55  36  49 SW13G21   30.15F
* THREE FORKS  CLOUDY    50  50 100 N/A        N/A
* BOULDER HILL N/A       48  33  56 S11        N/A
* MONIDA PASS  N/A       53  35  51 S19G30     N/A
* RAYNOLDS PAS N/A       54  27  35 SE11G16    N/A
* WHITEHALL    N/A       51  43  74 SE3        N/A
* WISE RIVER   N/A       45  39  80 W6         N/A
$$

MTZ009>010-012-014-046-048-049-054-242200-
EAST SLOPES AND CENTRAL MONTANA
CITY           SKY/WX    TMP DP  RH WIND       PRES   REMARKS
CUT BANK       PTSUNNY   54  28  37 W25G36    30.00R
GREAT FALLS    CLOUDY    55  34  45 SW15      30.01F
HELENA         CLOUDY    57  36  46 W9        30.07F
MALMSTROM AFB  CLOUDY    57  34  42 SW18G26   30.03S
* CONRAD       CLOUDY    55  34  45 N/A        N/A
* DEARBORN     N/A       57  33  40 S17G29     N/A
* EAST GLACIER N/A       46  30  54 W24G36     N/A
* MONARCH      N/A       48  27  44 SW10G17    N/A
* PENDROY      N/A       51  28  41 N2         N/A
* ROGERS PASS  N/A       45  32  60 SE14G24    N/A
* SAINT MARY   N/A       47  30  52 SW10G22    N/A
* SWEET GRASS  N/A       52  25  35 W22G32     N/A
* WHITE SULPH  N/A       48  37  66 S6         N/A
$$

MTZ011-013-016-021-035-040-045-047-050-051-242200-
NORTH CENTRAL MONTANA
CITY           SKY/WX    TMP DP  RH WIND       PRES   REMARKS
HAVRE          CLOUDY    57  28  33 W21G26    30.00S
LEWISTOWN      CLOUDY    55  36  49 W3        30.05S
* CHINOOK      CLOUDY    57  28  33 W20       29.99S
* FORT BENTON  CLOUDY    61  30  31 SW8       30.02R
* CHESTER      N/A       54  28  37 W12G19     N/A
* DENTON       N/A       58  32  37 W13        N/A
* GEYSER       N/A       55  32  42 SW16       N/A
* JUDITH GAP   N/A       51  39  64 E2G7       N/A
* LOMA         N/A       59  31  35 W12        N/A
$$

MTZ017>020-022>027-061-062-242200-
NORTHEAST MONTANA
CITY           SKY/WX    TMP DP  RH WIND       PRES   REMARKS
GLASGOW        PTSUNNY   59  28  31 NW18      29.97S
GLENDIVE       CLOUDY    61  28  29 NW15G20   30.02S
JORDAN         CLOUDY    59  28  31 NW15      30.02S
SIDNEY         PTSUNNY   61  25  25 W16G23    30.00R
WOLF POINT     CLOUDY    61  30  31 W17G24    29.98R
* BEAVER HILL  N/A       58  27  31 W16G22     N/A
* CIRCLE       N/A       61  32  34 SW16       N/A
* LINDSAY DVD  N/A       58  26  29 W17G22     N/A
* NAVAJO       N/A       59  27  29 W21G27     N/A
$$

MTZ028>042-056>058-242200-
SOUTHCENTRAL AND SOUTHEAST MONTANA
CITY           SKY/WX    TMP DP  RH WIND       PRES   REMARKS
BAKER          PTSUNNY   59  30  33 W12       30.03S
BILLINGS       CLOUDY    57  39  51 NE6       30.05F
LIVINGSTON     CLOUDY    55  39  55 W7        30.07R
MILES CITY     CLOUDY    61  30  31 NW13      30.04R
* LAUREL APT   CLOUDY    57  37  47 N6         N/A
* ROUNDUP APT  CLOUDY    57  36  46 N/A        N/A
* ALZADA       N/A       64  34  33 NE2G9      N/A
* HYSHAM       N/A       57  33  40 N2         N/A
* LAME DEER    N/A       54  32  43 NE9        N/A
* REED POINT   N/A       55  40  57 N/A        N/A
* ROSCOE HILL  N/A       52  30  43 N7         N/A
$$

REGIONAL REPORTS...DAKOTAS
CITY           SKY/WX    TMP DP  RH WIND       PRES   REMARKS
WILLISTON      PTCLDY    61  28  29 W23       29.93R
DICKINSON      CLOUDY    59  30  33 W16G24    29.96R
BEACH          N/A       57  27  32 NW16G24   30.02R
CROSBY         SUNNY     61  27  27 W25G36    29.88R
TIOGA          SUNNY     57  27  32 W21G30    29.93R
BISMARCK       PTCLDY    68  36  31 W20G29    29.91R
GRAND FORKS    SUNNY     72  39  30 W17G30    29.74R
FARGO          SUNNY     77  41  28 W21       29.77R
BUFFALO SD     PTCLDY    64  28  26 N21       29.95S
RAPID CITY     SUNNY     70  37  30 N12       30.01R
$$

REGIONAL REPORTS...WYOMING/IDAHO/WASHINGTON
CITY           SKY/WX    TMP DP  RH WIND       PRES   REMARKS
GILLETTE       SUNNY     66  34  31 NE6       30.04S
SHERIDAN       PTCLDY    70  34  27 N7        30.03S
CODY           CLOUDY    64  36  35 NE16      30.02F
YELLOWSTONE LA PTSUNNY   52  27  38 VRB7      30.23S
SALMON         CLOUDY    48  45  89 CALM      30.09F
MULLAN PASS    CLOUDY    37  34  89 CALM      30.09S
SAND POINT     CLOUDY    52  37  57 CALM      30.09F
SPOKANE        CLOUDY    54  41  62 SE6       30.06F
$$

REGIONAL REPORTS...ALBERTA
CITY           SKY/WX    TMP DP  RH WIND       PRES   REMARKS
CALGARY        PTCLDY    52  12  20 NW24G32   29.91S
LETHBRIDGE     PTSUNNY   55  25  31 W32G43    29.95R
MEDICINE HAT   PTSUNNY   59  23  25 W17G28    29.93R
EDMONTON       PTCLDY    50  19  29 NW17G26   29.87R
WATERTON GATE  N/A       48  28  46 SW15G24    N/A
CARDSTON       N/A       52  28  40 W17G25     N/A
MILK RIVER     N/A       55  27  34 W24G32     N/A
$$

REGIONAL REPORTS...SASKATCHEWAN
CITY           SKY/WX    TMP DP  RH WIND       PRES   REMARKS
SWIFT CURRENT  SUNNY     54  28  37 W20G26    29.89R
MOOSE JAW      SUNNY     55  32  42 W24G30    29.87R
REGINA         SUNNY     55  32  42 W25G36    29.85R
VAL MARIE      N/A       57  23  27 W23        N/A
ASSINIBOIA     N/A       57  25  29 W23G31     N/A
CORONACH       N/A       57  27  32 W23G31     N/A

$$




USA.gov is the U.S. government's official web portal to all federal, state and local government web resources and services.